Date String (YYYY-MM-DD hh:mm:ss) UTC,Instrument flags,Ambient pressure (hPa),Sample flow (lpm),Bypass flow (lpm),Sample temperature (°C),Ambient temperature (°C),ASC tube jacket temperature (°C),LED temperature (°C),Box temperature (°C),Sample RH (%),Span deviation,Mass concentration (μg/m³),Mass concentration (μg/m³),Mass concentration (μg/m³)
DateTimeUTC,F1_M11,P_M11,Q1_M11,Q2_M11,T1_M11,T2_M11,T3_M11,T4_M11,T5_M11,U1_M11,ZSPAN_M11,X0_M11,X2_M11,X1_M11
2022-04-06 17:00:00,,0828.0,5.00,0.00,21.7,20.8,00.0,30.8,23.2,04.3,0000.0,0004.31,0001.17,0000.65
2022-04-06 17:01:00,,0827.9,5.00,0.00,21.6,20.7,00.0,30.8,23.2,04.1,0000.0,0003.68,0001.21,0000.66
2022-04-06 17:02:00,,0828.0,5.00,0.00,21.6,20.6,00.0,30.7,23.2,04.1,0000.0,0003.74,0001.18,0000.65
2022-04-06 17:03:00,,0828.1,5.00,0.00,21.6,20.6,00.0,30.7,23.1,04.1,0000.0,0003.60,0001.16,0000.64
2022-04-06 17:04:00,,0828.0,5.00,0.00,21.6,20.5,00.0,30.7,23.1,04.3,0000.0,0003.22,0001.17,0000.64
2022-04-06 17:05:00,,0828.0,5.01,0.00,21.5,20.4,00.0,30.7,23.0,04.2,0000.0,0002.50,0001.12,0000.63
2022-04-06 17:06:00,,0827.9,5.00,0.00,21.5,20.3,00.0,30.6,23.0,04.2,0000.0,0002.35,0001.06,0000.62
2022-04-06 17:07:00,,0828.1,4.99,0.00,21.4,20.3,00.0,30.6,22.9,04.3,0000.0,0002.63,0001.07,0000.62
2022-04-06 17:08:00,,0828.0,5.01,0.00,21.5,21.1,00.0,30.6,23.1,04.2,0000.0,0002.48,0001.02,0000.62
2022-04-06 17:09:00,,0828.0,4.99,0.00,21.6,22.4,00.0,30.7,23.5,04.2,0000.0,0002.40,0000.98,0000.61
2022-04-06 17:10:00,,0828.0,5.00,0.00,21.8,23.5,00.0,30.7,23.9,04.2,0000.0,0002.34,0000.96,0000.60
2022-04-06 17:11:00,,0827.9,4.99,0.00,21.9,23.2,00.0,30.7,23.9,04.1,0000.0,0002.33,0000.95,0000.60
2022-04-06 17:12:00,,0828.2,5.01,0.00,21.9,22.7,00.0,30.8,23.8,04.1,0000.0,0002.42,0000.96,0000.59
2022-04-06 17:13:00,,0828.1,5.00,0.00,21.9,22.3,00.0,30.8,23.7,04.2,0000.0,0002.51,0000.95,0000.58
2022-04-06 17:14:00,,0828.1,4.99,0.00,21.9,22.0,00.0,30.8,23.6,04.2,0000.0,0002.55,0001.00,0000.59
2022-04-06 17:15:00,,0828.0,4.99,0.00,21.9,21.7,00.0,30.8,23.5,04.2,0000.0,0003.27,0001.00,0000.59
2022-04-06 17:16:00,,0828.0,5.01,0.00,21.8,21.5,00.0,30.8,23.4,04.3,0000.0,0003.48,0001.03,0000.60
2022-04-06 17:17:00,,0828.1,4.98,0.00,21.8,21.2,00.0,30.8,23.4,04.3,0000.0,0003.51,0001.05,0000.60
2022-04-06 17:18:00,,0828.1,5.01,0.00,21.8,21.0,00.0,30.8,23.4,04.4,0000.0,0003.29,0001.06,0000.61
2022-04-06 17:19:00,,0828.3,5.00,0.00,21.7,20.8,00.0,30.7,23.3,04.1,0000.0,0003.29,0001.09,0000.62
2022-04-06 17:20:00,,0828.2,5.00,0.00,21.7,20.8,00.0,30.7,23.3,04.1,0000.0,0003.37,0001.12,0000.63
2022-04-06 17:21:00,,0828.3,5.01,0.00,21.7,20.7,00.0,30.7,23.2,04.2,0000.0,0003.43,0001.14,0000.64
2022-04-06 17:22:00,,0828.3,5.00,0.00,21.6,20.6,00.0,30.7,23.2,04.4,0000.0,0003.43,0001.16,0000.64
2022-04-06 17:23:00,,0828.3,5.01,0.00,21.6,20.6,00.0,30.7,23.1,04.4,0000.0,0003.25,0001.11,0000.64
2022-04-06 17:24:00,,0828.2,5.00,0.00,21.5,20.6,00.0,30.7,23.1,04.3,0000.0,0003.12,0001.13,0000.65
2022-04-06 17:25:00,,0828.2,4.98,0.00,21.5,20.5,00.0,30.6,23.1,04.2,0000.0,0003.02,0001.09,0000.65
2022-04-06 17:26:00,,0828.1,5.00,0.00,21.5,20.4,00.0,30.6,23.0,04.3,0000.0,0002.22,0001.07,0000.65
2022-04-06 17:27:00,,0828.1,5.00,0.00,21.5,20.3,00.0,30.6,23.0,04.2,0000.0,0002.07,0001.06,0000.64
2022-04-06 17:28:00,,0828.2,5.00,0.00,21.5,20.3,00.0,30.5,23.0,04.2,0000.0,0002.05,0001.06,0000.64
2022-04-06 17:29:00,,0828.2,5.00,0.00,21.5,20.7,00.0,30.5,23.1,04.2,0000.0,0002.12,0001.06,0000.64
2022-04-06 17:30:00,,0828.1,5.01,0.00,21.6,22.0,00.0,30.6,23.5,04.3,0000.0,0002.02,0001.03,0000.63
2022-04-06 17:31:00,,0828.3,4.99,0.00,21.8,23.2,00.0,30.7,23.9,04.1,0000.0,0002.10,0001.08,0000.63
2022-04-06 17:32:00,,0828.2,5.00,0.00,22.0,23.3,00.0,30.7,24.0,04.3,0000.0,0002.10,0001.09,0000.64
2022-04-06 17:33:00,,0828.2,5.00,0.00,22.0,22.9,00.0,30.7,23.9,04.4,0000.0,0001.93,0001.04,0000.64
2022-04-06 17:34:00,,0828.3,5.00,0.00,21.9,22.5,00.0,30.8,23.7,04.3,0000.0,0001.91,0001.04,0000.65
2022-04-06 17:35:00,,0828.4,5.00,0.00,21.9,22.1,00.0,30.8,23.7,04.3,0000.0,0001.80,0001.00,0000.64
2022-04-06 17:36:00,,0828.3,5.00,0.00,21.9,21.8,00.0,30.8,23.6,04.3,0000.0,0001.75,0000.99,0000.64
2022-04-06 17:37:00,,0828.3,5.00,0.00,21.9,21.5,00.0,30.8,23.6,04.4,0000.0,0001.76,0000.98,0000.63
2022-04-06 17:38:00,,0828.3,5.01,0.00,21.9,21.2,00.0,30.8,23.5,04.4,0000.0,0001.75,0000.96,0000.64
2022-04-06 17:39:00,,0828.4,5.01,0.00,21.8,21.0,00.0,30.8,23.5,04.5,0000.0,0002.07,0000.95,0000.64
2022-04-06 17:40:00,,0828.4,5.00,0.00,21.8,20.9,00.0,30.7,23.4,04.4,0000.0,0002.49,0000.97,0000.66
2022-04-06 17:41:00,,0828.4,5.00,0.00,21.8,20.8,00.0,30.7,23.4,04.4,0000.0,0002.71,0001.01,0000.66
2022-04-06 17:42:00,,0828.6,5.01,0.00,21.7,20.7,00.0,30.7,23.3,04.3,0000.0,0002.75,0001.03,0000.66
2022-04-06 17:43:00,,0828.7,4.99,0.00,21.7,20.6,00.0,30.7,23.3,04.4,0000.0,0002.63,0000.98,0000.66
2022-04-06 17:44:00,,0828.5,5.00,0.00,21.7,20.5,00.0,30.7,23.3,04.6,0000.0,0002.72,0001.03,0000.66
2022-04-06 17:45:00,,0828.4,5.00,0.00,21.7,20.5,00.0,30.7,23.2,04.5,0000.0,0002.76,0001.04,0000.66
2022-04-06 17:46:00,,0828.8,5.00,0.00,21.6,20.4,00.0,30.7,23.2,04.6,0000.0,0002.74,0001.04,0000.67
2022-04-06 17:47:00,,0828.8,5.00,0.00,21.6,20.4,00.0,30.6,23.1,04.7,0000.0,0002.82,0001.08,0000.68
2022-04-06 17:48:00,,0828.7,5.00,0.00,21.5,20.3,00.0,30.6,23.1,04.7,0000.0,0003.00,0001.15,0000.69
2022-04-06 17:49:00,,0828.6,5.00,0.00,21.5,20.3,00.0,30.6,23.1,04.7,0000.0,0003.08,0001.19,0000.69
2022-04-06 17:50:00,,0828.7,5.00,0.00,21.5,20.4,00.0,30.6,23.1,04.6,0000.0,0003.06,0001.22,0000.69
2022-04-06 17:51:00,,0828.6,4.99,0.00,21.6,21.5,00.0,30.6,23.4,04.8,0000.0,0002.52,0001.18,0000.68
2022-04-06 17:52:00,,0828.7,5.02,0.00,21.8,22.8,00.0,30.7,23.8,04.7,0000.0,0002.91,0001.19,0000.68
2022-04-06 17:53:00,,0828.8,5.00,0.00,21.9,23.4,00.0,30.7,24.0,04.6,0000.0,0002.82,0001.15,0000.69
2022-04-06 17:54:00,,0828.9,4.99,0.00,22.0,23.0,00.0,30.8,24.0,04.4,0000.0,0002.81,0001.15,0000.69
2022-04-06 17:55:00,,0828.7,5.01,0.00,22.0,22.6,00.0,30.8,23.9,04.5,0000.0,0002.75,0001.11,0000.69
2022-04-06 17:56:00,,0829.0,4.98,0.00,22.0,22.3,00.0,30.8,23.8,04.5,0000.0,0002.84,0001.13,0000.69
2022-04-06 17:57:00,,0829.0,5.01,0.00,22.0,22.0,00.0,30.8,23.7,04.6,0000.0,0002.96,0001.14,0000.68
2022-04-06 17:58:00,,0829.0,4.99,0.00,21.9,21.7,00.0,30.8,23.6,04.7,0000.0,0003.37,0001.14,0000.68
2022-04-06 17:59:00,,0829.0,5.00,0.00,21.9,21.5,00.0,30.8,23.5,04.8,0000.0,0003.30,0001.11,0000.68
